Location: Ida Center
(41.8662°N, 83.5713°W)
Time: 00:21:46
(UTC+00:00)

Cosmos 923 Rocket - Pass Details

Date: 17 November 2019
Orbit: 759 x 785 km, 74.0° (Epoch: 10 December)

Event Time Altitude Azimuth Distance (km) Brightness Sun altitude
Rises 22:54:03 0° 183° (S) 3,218 7.5 -8.1°
Reaches altitude 10° 22:56:28 10° 179° (S) 2,293 6.7 -8.5°
Maximum altitude 23:01:29 51° 104° (ESE) 957 4.2 -9.4°
Drops below altitude 10° 23:06:31 10° 30° (NNE) 2,298 6.1 -10.3°
Enters shadow 23:08:27 - 26° (NNE) 3,038 6.7 -10.7°
